﻿測定場所 (Monitoring sites),日付 (Measurement date),時間 (Measurement time),線量率 最大値 (max) μGy/h,線量率 最小値 (min) μGy/h,線量率 平均値 (average) μGy/h,
江戸川 (Edogawa),2020-06-07,23:01～24:00,0.0485,0.0425,0.0452,
江戸川 (Edogawa),2020-06-07,22:01～23:00,0.0474,0.0414,0.0450,
江戸川 (Edogawa),2020-06-07,21:01～22:00,0.0478,0.0427,0.0450,
江戸川 (Edogawa),2020-06-07,20:01～21:00,0.0482,0.0419,0.0449,
江戸川 (Edogawa),2020-06-07,19:01～20:00,0.0486,0.0423,0.0452,
江戸川 (Edogawa),2020-06-07,18:01～19:00,0.0479,0.0421,0.0447,
江戸川 (Edogawa),2020-06-07,17:01～18:00,0.0483,0.0411,0.0450,
江戸川 (Edogawa),2020-06-07,16:01～17:00,0.0478,0.0418,0.0449,
江戸川 (Edogawa),2020-06-07,15:01～16:00,0.0471,0.0404,0.0448,
江戸川 (Edogawa),2020-06-07,14:01～15:00,0.0481,0.0419,0.0450,
江戸川 (Edogawa),2020-06-07,13:01～14:00,0.0485,0.0424,0.0452,
江戸川 (Edogawa),2020-06-07,12:01～13:00,0.0472,0.0420,0.0449,
江戸川 (Edogawa),2020-06-07,11:01～12:00,0.0470,0.0419,0.0447,
江戸川 (Edogawa),2020-06-07,10:01～11:00,0.0485,0.0407,0.0446,
江戸川 (Edogawa),2020-06-07,09:01～10:00,0.0484,0.0417,0.0449,
江戸川 (Edogawa),2020-06-07,08:01～09:00,0.0478,0.0412,0.0445,
江戸川 (Edogawa),2020-06-07,07:01～08:00,0.0485,0.0419,0.0446,
江戸川 (Edogawa),2020-06-07,06:01～07:00,0.0473,0.0409,0.0448,
江戸川 (Edogawa),2020-06-07,05:01～06:00,0.0480,0.0410,0.0445,
江戸川 (Edogawa),2020-06-07,04:01～05:00,0.0483,0.0423,0.0451,
江戸川 (Edogawa),2020-06-07,03:01～04:00,0.0496,0.0433,0.0459,
江戸川 (Edogawa),2020-06-07,02:01～03:00,0.0494,0.0434,0.0458,
江戸川 (Edogawa),2020-06-07,01:01～02:00,0.0556,0.0456,0.0500,
江戸川 (Edogawa),2020-06-07,00:01～01:00,0.0623,0.0521,0.0574,
江戸川 (Edogawa),2020-06-06,23:01～24:00,0.0678,0.0590,0.0637,
江戸川 (Edogawa),2020-06-06,22:01～23:00,0.0678,0.0547,0.0624,
江戸川 (Edogawa),2020-06-06,21:01～22:00,0.0578,0.0451,0.0518,
江戸川 (Edogawa),2020-06-06,20:01～21:00,0.0498,0.0428,0.0462,
江戸川 (Edogawa),2020-06-06,19:01～20:00,0.0512,0.0417,0.0456,
江戸川 (Edogawa),2020-06-06,18:01～19:00,0.0488,0.0415,0.0453,
江戸川 (Edogawa),2020-06-06,17:01～18:00,0.0477,0.0426,0.0454,
江戸川 (Edogawa),2020-06-06,16:01～17:00,0.0492,0.0430,0.0457,
江戸川 (Edogawa),2020-06-06,15:01～16:00,0.0490,0.0428,0.0456,
江戸川 (Edogawa),2020-06-06,14:01～15:00,0.0482,0.0427,0.0455,
江戸川 (Edogawa),2020-06-06,13:01～14:00,0.0494,0.0433,0.0454,
江戸川 (Edogawa),2020-06-06,12:01～13:00,0.0483,0.0412,0.0450,
江戸川 (Edogawa),2020-06-06,11:01～12:00,0.0486,0.0415,0.0453,
江戸川 (Edogawa),2020-06-06,10:01～11:00,0.0477,0.0421,0.0452,
江戸川 (Edogawa),2020-06-06,09:01～10:00,0.0479,0.0428,0.0453,
江戸川 (Edogawa),2020-06-06,08:01～09:00,0.0493,0.0426,0.0455,
江戸川 (Edogawa),2020-06-06,07:01～08:00,0.0474,0.0419,0.0452,
江戸川 (Edogawa),2020-06-06,06:01～07:00,0.0491,0.0423,0.0452,
江戸川 (Edogawa),2020-06-06,05:01～06:00,0.0480,0.0424,0.0452,
江戸川 (Edogawa),2020-06-06,04:01～05:00,0.0494,0.0417,0.0457,
江戸川 (Edogawa),2020-06-06,03:01～04:00,0.0487,0.0422,0.0456,
江戸川 (Edogawa),2020-06-06,02:01～03:00,0.0493,0.0427,0.0453,
江戸川 (Edogawa),2020-06-06,01:01～02:00,0.0490,0.0411,0.0453,
江戸川 (Edogawa),2020-06-06,00:01～01:00,0.0477,0.0424,0.0452,
江戸川 (Edogawa),2020-06-05,23:01～24:00,0.0493,0.0418,0.0453,
江戸川 (Edogawa),2020-06-05,22:01～23:00,0.0495,0.0413,0.0454,
江戸川 (Edogawa),2020-06-05,21:01～22:00,0.0498,0.0428,0.0454,
江戸川 (Edogawa),2020-06-05,20:01～21:00,0.0514,0.0404,0.0451,
江戸川 (Edogawa),2020-06-05,19:01～20:00,0.0483,0.0420,0.0450,
江戸川 (Edogawa),2020-06-05,18:01～19:00,0.0478,0.0414,0.0447,
江戸川 (Edogawa),2020-06-05,17:01～18:00,0.0478,0.0409,0.0447,
江戸川 (Edogawa),2020-06-05,16:01～17:00,0.0480,0.0420,0.0451,
江戸川 (Edogawa),2020-06-05,15:01～16:00,0.0486,0.0419,0.0450,
江戸川 (Edogawa),2020-06-05,14:01～15:00,0.0481,0.0409,0.0452,
江戸川 (Edogawa),2020-06-05,13:01～14:00,0.0478,0.0414,0.0449,
江戸川 (Edogawa),2020-06-05,12:01～13:00,0.0485,0.0417,0.0450,
江戸川 (Edogawa),2020-06-05,11:01～12:00,0.0487,0.0416,0.0451,
江戸川 (Edogawa),2020-06-05,10:01～11:00,0.0475,0.0408,0.0450,
江戸川 (Edogawa),2020-06-05,09:01～10:00,0.0483,0.0414,0.0451,
江戸川 (Edogawa),2020-06-05,08:01～09:00,0.0492,0.0419,0.0449,
江戸川 (Edogawa),2020-06-05,07:01～08:00,0.0490,0.0414,0.0448,
江戸川 (Edogawa),2020-06-05,06:01～07:00,0.0484,0.0418,0.0449,
江戸川 (Edogawa),2020-06-05,05:01～06:00,0.0471,0.0418,0.0446,
江戸川 (Edogawa),2020-06-05,04:01～05:00,0.0480,0.0404,0.0447,
江戸川 (Edogawa),2020-06-05,03:01～04:00,0.0477,0.0424,0.0448,
江戸川 (Edogawa),2020-06-05,02:01～03:00,0.0473,0.0423,0.0442,
江戸川 (Edogawa),2020-06-05,01:01～02:00,0.0475,0.0419,0.0449,
江戸川 (Edogawa),2020-06-05,00:01～01:00,0.0475,0.0405,0.0444,
江戸川 (Edogawa),2020-06-04,23:01～24:00,0.0478,0.0416,0.0449,
江戸川 (Edogawa),2020-06-04,22:01～23:00,0.0482,0.0410,0.0446,
江戸川 (Edogawa),2020-06-04,21:01～22:00,0.0481,0.0424,0.0447,
江戸川 (Edogawa),2020-06-04,20:01～21:00,0.0499,0.0406,0.0448,
江戸川 (Edogawa),2020-06-04,19:01～20:00,0.0490,0.0411,0.0450,
江戸川 (Edogawa),2020-06-04,18:01～19:00,0.0477,0.0423,0.0449,
江戸川 (Edogawa),2020-06-04,17:01～18:00,0.0478,0.0411,0.0451,
江戸川 (Edogawa),2020-06-04,16:01～17:00,0.0475,0.0420,0.0451,
江戸川 (Edogawa),2020-06-04,15:01～16:00,0.0484,0.0427,0.0449,
江戸川 (Edogawa),2020-06-04,14:01～15:00,0.0486,0.0429,0.0453,
江戸川 (Edogawa),2020-06-04,13:01～14:00,0.0492,0.0414,0.0451,
江戸川 (Edogawa),2020-06-04,12:01～13:00,0.0476,0.0411,0.0446,
江戸川 (Edogawa),2020-06-04,11:01～12:00,0.0476,0.0428,0.0450,
江戸川 (Edogawa),2020-06-04,10:01～11:00,0.0472,0.0420,0.0447,
江戸川 (Edogawa),2020-06-04,09:01～10:00,0.0491,0.0422,0.0450,
江戸川 (Edogawa),2020-06-04,08:01～09:00,0.0485,0.0413,0.0447,
江戸川 (Edogawa),2020-06-04,07:01～08:00,0.0477,0.0417,0.0448,
江戸川 (Edogawa),2020-06-04,06:01～07:00,0.0482,0.0411,0.0448,
江戸川 (Edogawa),2020-06-04,05:01～06:00,0.0473,0.0419,0.0446,
江戸川 (Edogawa),2020-06-04,04:01～05:00,0.0484,0.0421,0.0447,
江戸川 (Edogawa),2020-06-04,03:01～04:00,0.0482,0.0408,0.0447,
江戸川 (Edogawa),2020-06-04,02:01～03:00,0.0469,0.0425,0.0450,
江戸川 (Edogawa),2020-06-04,01:01～02:00,0.0487,0.0422,0.0449,
江戸川 (Edogawa),2020-06-04,00:01～01:00,0.0478,0.0406,0.0448,
江戸川 (Edogawa),2020-06-03,23:01～24:00,0.0485,0.0417,0.0451,
江戸川 (Edogawa),2020-06-03,22:01～23:00,0.0481,0.0426,0.0451,
江戸川 (Edogawa),2020-06-03,21:01～22:00,0.0480,0.0415,0.0450,
江戸川 (Edogawa),2020-06-03,20:01～21:00,0.0477,0.0422,0.0450,
江戸川 (Edogawa),2020-06-03,19:01～20:00,0.0480,0.0420,0.0450,
江戸川 (Edogawa),2020-06-03,18:01～19:00,0.0511,0.0416,0.0448,
江戸川 (Edogawa),2020-06-03,17:01～18:00,0.0484,0.0428,0.0448,
江戸川 (Edogawa),2020-06-03,16:01～17:00,0.0478,0.0414,0.0447,
江戸川 (Edogawa),2020-06-03,15:01～16:00,0.0486,0.0423,0.0451,
江戸川 (Edogawa),2020-06-03,14:01～15:00,0.0477,0.0422,0.0450,
江戸川 (Edogawa),2020-06-03,13:01～14:00,0.0476,0.0428,0.0448,
江戸川 (Edogawa),2020-06-03,12:01～13:00,0.0486,0.0413,0.0449,
江戸川 (Edogawa),2020-06-03,11:01～12:00,0.0494,0.0416,0.0450,
江戸川 (Edogawa),2020-06-03,10:01～11:00,0.0493,0.0416,0.0449,
江戸川 (Edogawa),2020-06-03,09:01～10:00,0.0481,0.0427,0.0446,
江戸川 (Edogawa),2020-06-03,08:01～09:00,0.0484,0.0426,0.0447,
江戸川 (Edogawa),2020-06-03,07:01～08:00,0.0485,0.0410,0.0444,
江戸川 (Edogawa),2020-06-03,06:01～07:00,0.0483,0.0410,0.0448,
江戸川 (Edogawa),2020-06-03,05:01～06:00,0.0480,0.0420,0.0447,
江戸川 (Edogawa),2020-06-03,04:01～05:00,0.0474,0.0411,0.0444,
江戸川 (Edogawa),2020-06-03,03:01～04:00,0.0479,0.0411,0.0447,
江戸川 (Edogawa),2020-06-03,02:01～03:00,0.0496,0.0417,0.0447,
江戸川 (Edogawa),2020-06-03,01:01～02:00,0.0495,0.0417,0.0447,
江戸川 (Edogawa),2020-06-03,00:01～01:00,0.0472,0.0411,0.0446,
江戸川 (Edogawa),2020-06-02,23:01～24:00,0.0467,0.0414,0.0445,
江戸川 (Edogawa),2020-06-02,22:01～23:00,0.0475,0.0410,0.0442,
江戸川 (Edogawa),2020-06-02,21:01～22:00,0.0468,0.0416,0.0445,
江戸川 (Edogawa),2020-06-02,20:01～21:00,0.0473,0.0402,0.0443,
江戸川 (Edogawa),2020-06-02,19:01～20:00,0.0467,0.0410,0.0438,
江戸川 (Edogawa),2020-06-02,18:01～19:00,0.0472,0.0407,0.0441,
江戸川 (Edogawa),2020-06-02,17:01～18:00,0.0472,0.0400,0.0443,
江戸川 (Edogawa),2020-06-02,16:01～17:00,0.0473,0.0410,0.0441,
江戸川 (Edogawa),2020-06-02,15:01～16:00,0.0478,0.0412,0.0441,
江戸川 (Edogawa),2020-06-02,14:01～15:00,0.0471,0.0413,0.0441,
江戸川 (Edogawa),2020-06-02,13:01～14:00,0.0472,0.0415,0.0444,
江戸川 (Edogawa),2020-06-02,12:01～13:00,0.0468,0.0414,0.0439,
江戸川 (Edogawa),2020-06-02,11:01～12:00,0.0468,0.0411,0.0436,
江戸川 (Edogawa),2020-06-02,10:01～11:00,0.0482,0.0412,0.0439,
江戸川 (Edogawa),2020-06-02,09:01～10:00,0.0476,0.0415,0.0442,
江戸川 (Edogawa),2020-06-02,08:01～09:00,0.0470,0.0408,0.0442,
江戸川 (Edogawa),2020-06-02,07:01～08:00,0.0461,0.0409,0.0438,
江戸川 (Edogawa),2020-06-02,06:01～07:00,0.0471,0.0411,0.0439,
江戸川 (Edogawa),2020-06-02,05:01～06:00,0.0463,0.0411,0.0437,
江戸川 (Edogawa),2020-06-02,04:01～05:00,0.0481,0.0407,0.0439,
江戸川 (Edogawa),2020-06-02,03:01～04:00,0.0470,0.0410,0.0438,
江戸川 (Edogawa),2020-06-02,02:01～03:00,0.0469,0.0411,0.0440,
江戸川 (Edogawa),2020-06-02,01:01～02:00,0.0495,0.0409,0.0446,
江戸川 (Edogawa),2020-06-02,00:01～01:00,0.0486,0.0423,0.0456,
江戸川 (Edogawa),2020-06-01,23:01～24:00,0.0464,0.0408,0.0438,
江戸川 (Edogawa),2020-06-01,22:01～23:00,0.0468,0.0411,0.0437,
江戸川 (Edogawa),2020-06-01,21:01～22:00,0.0469,0.0409,0.0438,
江戸川 (Edogawa),2020-06-01,20:01～21:00,0.0478,0.0408,0.0438,
江戸川 (Edogawa),2020-06-01,19:01～20:00,0.0467,0.0407,0.0433,
江戸川 (Edogawa),2020-06-01,18:01～19:00,0.0471,0.0406,0.0438,
江戸川 (Edogawa),2020-06-01,17:01～18:00,0.0474,0.0411,0.0439,
江戸川 (Edogawa),2020-06-01,16:01～17:00,0.0476,0.0399,0.0437,
江戸川 (Edogawa),2020-06-01,15:01～16:00,0.0475,0.0411,0.0439,
江戸川 (Edogawa),2020-06-01,14:01～15:00,0.0473,0.0416,0.0444,
江戸川 (Edogawa),2020-06-01,13:01～14:00,0.0476,0.0416,0.0445,
江戸川 (Edogawa),2020-06-01,12:01～13:00,0.0462,0.0408,0.0436,
江戸川 (Edogawa),2020-06-01,11:01～12:00,0.0461,0.0409,0.0438,
江戸川 (Edogawa),2020-06-01,10:01～11:00,0.0476,0.0405,0.0436,
江戸川 (Edogawa),2020-06-01,09:01～10:00,0.0474,0.0421,0.0443,
江戸川 (Edogawa),2020-06-01,08:01～09:00,0.0489,0.0405,0.0459,
江戸川 (Edogawa),2020-06-01,07:01～08:00,0.0493,0.0407,0.0444,
江戸川 (Edogawa),2020-06-01,06:01～07:00,0.0474,0.0409,0.0442,
江戸川 (Edogawa),2020-06-01,05:01～06:00,0.0478,0.0409,0.0441,
江戸川 (Edogawa),2020-06-01,04:01～05:00,0.0469,0.0414,0.0439,
江戸川 (Edogawa),2020-06-01,03:01～04:00,0.0483,0.0413,0.0442,
江戸川 (Edogawa),2020-06-01,02:01～03:00,0.0467,0.0409,0.0437,
江戸川 (Edogawa),2020-06-01,01:01～02:00,0.0468,0.0410,0.0441,
江戸川 (Edogawa),2020-06-01,00:01～01:00,0.0467,0.0406,0.0439,
